Orbital Elements at Epoch 2459200.5 (2020-Dec-17.0) TDB
Reference: JPL 20 (heliocentric ecliptic J2000)
Element | Value | Uncertainty (1-sigma) | Units |
e | .09963507867038653 | 3.4996e-08 | |
a | 2.314126646942685 | 1.0563e-08 | au |
q | 2.083558456421313 | 7.9526e-08 | au |
i | 3.988683014523903 | 4.9209e-06 | deg |
node | 351.1047353058245 | 5.4096e-05 | deg |
peri | 235.8226710774457 | 5.9472e-05 | deg |
M | 220.7116913196678 | 2.4746e-05 | deg |
tp | 2459697.997927524387 (2022-Apr-28.49792752) | 8.8985e-05 | TDB |
period | 1285.816847125438 3.52 | 8.8041e-06 2.41e-08 | d yr |
n | .2799776661853617 | 1.917e-09 | deg/d |
Q | 2.544694837464057 | 1.1616e-08 | au |
|
| | Orbit Determination Parameters
Additional Information
|